Weather History for Valparaiso, IN

Change the Weather History Date:

Saturday, January 5, 2013

  Actual Average Record
Temperature  
Mean Temperature 26 °F 24 °F  
Max Temperature 34 °F 31 °F 55 °F (1998)
Min Temperature 18 °F 17 °F -20 °F (1999)
Degree Days  
Heating Degree Days 39 41  
Month to date heating degree days 217 205  
Since 1 July heating degree days 2402 2607  
Cooling Degree Days 0 0  
Month to date cooling degree days 0 0  
Year to date cooling degree days 0 0  
Moisture  
Dew Point 26 °F    
Average Humidity 87    
Maximum Humidity 96    
Minimum Humidity 69    
Precipitation  
Precipitation T in 0.06 in 0.23 in (2014)
Month to date precipitation T 0.28  
Year to date precipitation T 0.28  
Sea Level Pressure  
Sea Level Pressure 30.15 in    
Wind  
Wind Speed 9 mph (SSW)    
Max Wind Speed 18 mph    
Max Gust Speed 24 mph    
Visibility 6 miles    
Events Fog , Snow    
T = Trace of Precipitation, MM = Missing Value Source: NWS Daily Summary

Daily Weather History Graph

Daily Weather History Graph

Search for Another Location

Airport:

Trip Planner

Search our weather history database for the weather conditions in past years. The results will help you decide how hot, cold, wet, or windy it might be!

Date:

Astronomy

Jan. 05, 2013 Rise Set
Actual Time 7:14 AM CST 4:32 PM CST
Civil Twilight 6:43 AM CST 5:04 PM CST
Nautical Twilight 6:08 AM CST 5:38 PM CST
Astronomical Twilight 5:35 AM CST 6:12 PM CST
Moon 12:17 AM CST (1/5) 11:24 AM CST (1/5)
Length of Visible Light 10h 20m
Length of Day
9h 18m
Last Quarter, 44% of the Moon is Illuminated
Jan 5
Last Quarter
Jan 11
New
Jan 18
First Quarter
Jan 26
Full
Feb 3
Last Quarter

Hourly Weather History & Observations

Time (CST) Temp. Windchill Dew Point Humidity Pressure Visibility Wind Dir Wind Speed Gust Speed Precip Events Conditions
12:53 AM 23.0 °F 17.0 °F 19.0 °F 85% 30.25 in 10.0 mi SW 4.6 mph - N/A   Clear
1:53 AM 24.1 °F 15.2 °F 19.0 °F 81% 30.29 in 10.0 mi SW 8.1 mph - N/A   Clear
2:53 AM 21.9 °F 14.5 °F 18.0 °F 85% 30.30 in 10.0 mi SW 5.8 mph - N/A   Clear
3:53 AM 21.0 °F 14.6 °F 18.0 °F 88% 30.29 in 10.0 mi SSW 4.6 mph - N/A   Clear
4:53 AM 19.9 °F - 17.1 °F 89% 30.26 in 10.0 mi Calm Calm - N/A   Clear
5:53 AM 19.9 °F 13.4 °F 17.1 °F 89% 30.27 in 9.0 mi South 4.6 mph - N/A   Clear
6:53 AM 19.9 °F 11.1 °F 17.1 °F 89% 30.27 in 8.0 mi South 6.9 mph - N/A   Clear
7:53 AM 21.0 °F 11.4 °F 17.1 °F 85% 30.27 in 6.0 mi SSW 8.1 mph - N/A   Clear
8:53 AM 24.1 °F 16.0 °F 19.0 °F 81% 30.26 in 7.0 mi South 6.9 mph - N/A   Clear
9:53 AM 28.0 °F 20.0 °F 21.9 °F 78% 30.25 in 8.0 mi South 8.1 mph - N/A   Clear
10:53 AM 32.0 °F 22.5 °F 23.0 °F 69% 30.23 in 10.0 mi SSW 12.7 mph - N/A   Clear
11:53 AM 33.1 °F 26.1 °F 24.1 °F 70% 30.18 in 10.0 mi South 8.1 mph - N/A   Partly Cloudy
12:53 PM 33.1 °F 24.4 °F 25.0 °F 72% 30.15 in 10.0 mi SSW 11.5 mph - N/A   Clear
1:53 PM 33.1 °F 24.4 °F 25.0 °F 72% 30.14 in 10.0 mi SSW 11.5 mph - N/A   Mostly Cloudy
2:44 PM 33.8 °F 24.8 °F 26.6 °F 75% 30.11 in 1.5 mi SW 12.7 mph 23.0 mph 0.00 in Snow Light Snow
2:53 PM 32.0 °F 21.6 °F 28.9 °F 88% 30.14 in 0.5 mi SW 15.0 mph - 0.00 in Fog , Snow Snow
3:00 PM 32.0 °F 22.5 °F 30.2 °F 93% 30.11 in 0.8 mi SW 12.7 mph - 0.00 in Snow Light Snow
3:03 PM 32.0 °F 22.1 °F 30.2 °F 93% 30.11 in 1.0 mi SSW 13.8 mph - 0.00 in Snow Light Snow
3:11 PM 32.0 °F 22.5 °F 30.2 °F 93% 30.10 in 2.0 mi SW 12.7 mph - 0.00 in Snow Light Snow
3:36 PM 32.0 °F 22.5 °F 30.2 °F 93% 30.10 in 1.2 mi SW 12.7 mph - 0.00 in Snow Light Snow
3:53 PM 32.0 °F 23.6 °F 30.9 °F 96% 30.13 in 1.5 mi SW 10.4 mph - 0.00 in Snow Light Snow
4:14 PM 32.0 °F 24.8 °F 30.2 °F 93% 30.09 in 2.5 mi SSW 8.1 mph - 0.00 in   Overcast
4:22 PM 32.0 °F 23.0 °F 30.2 °F 93% 30.09 in 3.0 mi SSW 11.5 mph - 0.00 in   Overcast
4:40 PM 32.0 °F 24.2 °F 30.2 °F 93% 30.08 in 2.0 mi SSW 9.2 mph - 0.00 in Snow Light Snow
4:53 PM 32.0 °F 24.8 °F 30.9 °F 96% 30.12 in 4.0 mi SSW 8.1 mph - 0.00 in   Overcast
5:53 PM 33.1 °F 25.5 °F 32.0 °F 96% 30.10 in 3.0 mi SSW 9.2 mph - N/A   Overcast
6:38 PM 33.8 °F 26.4 °F 32.0 °F 93% 30.07 in 5.0 mi South 9.2 mph - N/A   Overcast
6:53 PM 33.1 °F 24.9 °F 32.0 °F 96% 30.11 in 6.0 mi South 10.4 mph - N/A   Overcast
7:53 PM 33.1 °F 22.6 °F 30.9 °F 92% 30.10 in 6.0 mi SSW 16.1 mph - N/A   Overcast
8:22 PM 33.8 °F 23.5 °F 30.2 °F 87% 30.06 in 7.0 mi SSW 16.1 mph 21.9 mph N/A   Overcast
8:53 PM 33.1 °F 23.0 °F 30.0 °F 89% 30.07 in 9.0 mi SSW 15.0 mph 21.9 mph N/A   Overcast
9:53 PM 34.0 °F 24.2 °F 30.0 °F 85% 30.06 in 4.0 mi SW 15.0 mph 24.2 mph 0.00 in Snow Light Snow
10:23 PM 33.8 °F 24.8 °F 30.2 °F 87% 30.03 in 4.0 mi SW 12.7 mph - 0.00 in Snow Light Snow
10:53 PM 34.0 °F 24.6 °F 30.9 °F 89% 30.04 in 7.0 mi SW 13.8 mph - 0.00 in   Overcast
11:53 PM 34.0 °F 25.5 °F 30.9 °F 89% 30.02 in 9.0 mi SSW 11.5 mph - N/A   Overcast